Weather History for Pocatello, ID

Change the Weather History Date:

Monday, August 5, 2013

  Actual Average Record
Temperature  
Mean Temperature 71 °F 71 °F  
Max Temperature 96 °F 89 °F 99 °F (1994)
Min Temperature 46 °F 53 °F 39 °F (1980)
Degree Days  
Heating Degree Days 0 0  
Month to date heating degree days 0 0  
Since 1 June heating degree days 90 151  
Since 1 July heating degree days 0 20  
Cooling Degree Days 6 6  
Month to date cooling degree days 30 30  
Year to date cooling degree days 424 253  
Since 1 June cooling degree days 415 248  
Growing Degree Days 21 (Base 50)    
Moisture  
Dew Point 28 °F    
Average Humidity 31    
Maximum Humidity 56    
Minimum Humidity 5    
Precipitation  
Precipitation 0.00 in 0.02 in 0.90 in (1962)
Month to date precipitation 0.01 0.09  
Year to date precipitation 3.83 7.55  
Snow  
Snow 0.00 in - - ()
Month to date snowfall 0.0  
Since 1 June snowfall 0.0  
Since 1 July snowfall 0.0  
Snow Depth 0.00 in    
Sea Level Pressure  
Sea Level Pressure 29.87 in    
Wind  
Wind Speed 8 mph (WSW)    
Max Wind Speed 20 mph    
Max Gust Speed 25 mph    
Visibility 10 miles    
Events      
T = Trace of Precipitation, MM = Missing Value Source: NWS Daily Summary

Daily Weather History Graph

Daily Weather History Graph

Search for Another Location

Airport:

Trip Planner

Search our weather history database for the weather conditions in past years. The results will help you decide how hot, cold, wet, or windy it might be!

Date:

Astronomy

Aug. 05, 2013 Rise Set
Actual Time 6:25 AM MDT 8:45 PM MDT
Civil Twilight 5:54 AM MDT 9:17 PM MDT
Nautical Twilight 5:14 AM MDT 9:56 PM MDT
Astronomical Twilight 4:31 AM MDT 10:39 PM MDT
Moon 5:24 AM MDT (8/5) 7:47 PM MDT (8/5)
Length of Visible Light 15h 23m
Length of Day
14h 19m
Waning Crescent, 1% of the Moon is Illuminated
Aug 5
Waning Crescent
Aug 6
New
Aug 14
First Quarter
Aug 20
Full
Aug 28
Last Quarter

Hourly Weather History & Observations

Time (MDT) Temp. Dew Point Humidity Pressure Visibility Wind Dir Wind Speed Gust Speed Precip Events Conditions
12:53 AM 63.0 °F 28.0 °F 27% 29.89 in 10.0 mi East 3.5 mph - N/A   Clear
1:53 AM 57.0 °F 28.0 °F 33% 29.90 in 10.0 mi ENE 3.5 mph - N/A   Clear
2:53 AM 51.1 °F 33.1 °F 50% 29.91 in 10.0 mi North 3.5 mph - N/A   Clear
3:53 AM 51.1 °F 33.1 °F 50% 29.92 in 10.0 mi East 4.6 mph - N/A   Clear
4:53 AM 55.9 °F 34.0 °F 44% 29.90 in 10.0 mi East 4.6 mph - N/A   Clear
5:53 AM 53.1 °F 28.9 °F 40% 29.90 in 10.0 mi NNW 5.8 mph - N/A   Clear
6:53 AM 48.0 °F 34.0 °F 58% 29.94 in 10.0 mi Calm Calm - N/A   Clear
7:53 AM 55.9 °F 35.1 °F 45% 29.94 in 10.0 mi Calm Calm - N/A   Clear
8:53 AM 66.0 °F 30.0 °F 26% 29.94 in 10.0 mi Calm Calm - N/A   Clear
9:53 AM 73.9 °F 30.0 °F 20% 29.94 in 10.0 mi ENE 3.5 mph - N/A   Clear
10:53 AM 80.1 °F 30.9 °F 17% 29.93 in 10.0 mi Variable 4.6 mph - N/A   Clear
11:53 AM 84.0 °F 35.1 °F 17% 29.92 in 10.0 mi NW 5.8 mph - N/A   Clear
12:53 PM 89.1 °F 28.0 °F 11% 29.89 in 10.0 mi WSW 8.1 mph - N/A   Clear
1:53 PM 91.9 °F 34.0 °F 13% 29.88 in 10.0 mi WSW 11.5 mph 19.6 mph N/A   Clear
2:53 PM 95.0 °F 28.9 °F 10% 29.87 in 10.0 mi West 15.0 mph 21.9 mph N/A   Scattered Clouds
3:53 PM 95.0 °F 12.0 °F 5% 29.84 in 10.0 mi WSW 16.1 mph - N/A   Partly Cloudy
4:53 PM 95.0 °F 18.0 °F 6% 29.81 in 10.0 mi WSW 16.1 mph 20.7 mph N/A   Partly Cloudy
5:53 PM 93.9 °F 18.0 °F 6% 29.80 in 10.0 mi WSW 13.8 mph 20.7 mph N/A   Partly Cloudy
6:53 PM 91.9 °F 25.0 °F 9% 29.81 in 10.0 mi WSW 15.0 mph - N/A   Partly Cloudy
7:53 PM 88.0 °F 28.9 °F 12% 29.81 in 10.0 mi WSW 12.7 mph - N/A   Clear
8:53 PM 80.1 °F 32.0 °F 17% 29.81 in 10.0 mi WSW 12.7 mph - 0.00 in   Clear
9:53 PM 75.9 °F 27.0 °F 16% 29.82 in 10.0 mi SSW 10.4 mph - 0.00 in   Clear
10:53 PM 75.0 °F 24.1 °F 15% 29.81 in 10.0 mi SSW 8.1 mph - N/A   Clear
11:53 PM 72.0 °F 26.1 °F 18% 29.81 in 10.0 mi SSW 8.1 mph - N/A   Clear